Location: Kelowna
(49.8880°N, 119.4960°W)
Time: 17:06:05
(UTC-07:00)

AO-27 - Pass Details

Date: 08 August 2024
Orbit: 783 x 796 km, 98.8° (Epoch: 14 September)

Event Time Altitude Azimuth Distance (km) Brightness Sun altitude
Exits shadow 22:03:30 - 187° (S) 2,906 10.2 -13.4°
Reaches altitude 10° 22:04:59 10° 193° (SSW) 2,354 9.8 -13.6°
Maximum altitude 22:09:52 40° 262° (W) 1,158 8.8 -14.1°
Drops below altitude 10° 22:14:48 10° 332° (NNW) 2,377 11.4 -14.6°
Sets 22:17:17 0° 340° (NNW) 3,312 12.3 -14.9°
